Time,TemperatureF,DewpointF,PressureIn,WindDirection,WindDirectionDegrees,WindSpeedMPH,WindSpeedGustMPH,Humidity,HourlyPrecipIn,Conditions,Clouds,dailyrainin,SoftwareType,DateUTC
2013-02-01 00:00:00,39.2,34.6,30.15,ENE,68,0.0,0.0,83,0.00,,,0.00,WUHU216HW,2013-02-01 08:00:00,
2013-02-01 00:05:00,39.1,34.4,30.15,ENE,68,0.0,0.0,83,0.00,,,0.00,WUHU216HW,2013-02-01 08:05:00,
2013-02-01 00:10:00,39.1,34.7,30.15,NE,45,0.0,0.2,84,0.00,,,0.00,WUHU216HW,2013-02-01 08:10:00,
2013-02-01 00:15:00,38.9,34.5,30.15,NE,45,0.0,0.2,84,0.00,,,0.00,WUHU216HW,2013-02-01 08:15:00,
2013-02-01 00:21:00,38.9,34.5,30.15,NE,45,0.0,0.2,84,0.00,,,0.00,WUHU216HW,2013-02-01 08:21:00,
2013-02-01 00:26:00,38.5,34.1,30.15,NE,45,0.0,0.2,84,0.00,,,0.00,WUHU216HW,2013-02-01 08:26:00,
2013-02-01 00:31:00,38.5,34.1,30.15,NE,45,0.0,0.2,84,0.00,,,0.00,WUHU216HW,2013-02-01 08:31:00,
2013-02-01 00:36:00,38.3,33.9,30.15,NE,45,0.2,0.4,84,0.00,,,0.00,WUHU216HW,2013-02-01 08:36:00,
2013-02-01 00:41:00,38.2,33.8,30.15,ENE,68,0.2,0.4,84,0.00,,,0.00,WUHU216HW,2013-02-01 08:41:00,
2013-02-01 00:46:00,38.2,33.8,30.14,ENE,68,0.0,0.4,84,0.00,,,0.00,WUHU216HW,2013-02-01 08:46:00,
2013-02-01 00:51:00,38.2,33.8,30.15,East,90,0.0,0.9,84,0.00,,,0.00,WUHU216HW,2013-02-01 08:51:00,
2013-02-01 00:56:00,38.0,33.8,30.14,ENE,68,0.4,0.9,85,0.00,,,0.00,WUHU216HW,2013-02-01 08:56:00,
2013-02-01 01:01:00,38.0,33.8,30.14,ENE,68,0.0,0.9,85,0.00,,,0.00,WUHU216HW,2013-02-01 09:01:00,
2013-02-01 01:06:00,38.0,33.8,30.15,ENE,68,0.0,0.9,85,0.00,,,0.00,WUHU216HW,2013-02-01 09:06:00,
2013-02-01 01:11:00,37.8,33.9,30.14,ENE,68,0.0,0.4,86,0.00,,,0.00,WUHU216HW,2013-02-01 09:11:00,
2013-02-01 01:16:00,37.8,33.7,30.15,ENE,68,0.0,0.2,85,0.00,,,0.00,WUHU216HW,2013-02-01 09:16:00,
2013-02-01 01:21:00,37.8,33.7,30.15,ENE,68,0.0,0.0,85,0.00,,,0.00,WUHU216HW,2013-02-01 09:21:00,
2013-02-01 01:26:00,37.6,33.5,30.15,ENE,68,0.0,0.0,85,0.00,,,0.00,WUHU216HW,2013-02-01 09:26:00,
2013-02-01 01:32:00,37.4,33.3,30.14,ENE,68,0.0,0.0,85,0.00,,,0.00,WUHU216HW,2013-02-01 09:32:00,
2013-02-01 01:37:00,37.3,33.4,30.15,ENE,68,0.4,0.4,86,0.00,,,0.00,WUHU216HW,2013-02-01 09:37:00,
2013-02-01 01:42:00,37.1,33.2,30.15,ENE,68,0.2,0.7,86,0.00,,,0.00,WUHU216HW,2013-02-01 09:42:00,
2013-02-01 01:47:00,37.1,33.2,30.15,ENE,68,0.0,0.7,86,0.00,,,0.00,WUHU216HW,2013-02-01 09:47:00,
2013-02-01 01:52:00,37.1,33.2,30.15,East,90,0.2,0.7,86,0.00,,,0.00,WUHU216HW,2013-02-01 09:52:00,
2013-02-01 01:57:00,37.1,33.2,30.15,ESE,113,0.2,0.4,86,0.00,,,0.00,WUHU216HW,2013-02-01 09:57:00,
2013-02-01 02:02:00,37.1,33.2,30.15,ESE,113,0.0,0.4,86,0.00,,,0.00,WUHU216HW,2013-02-01 10:02:00,
2013-02-01 02:07:00,36.9,33.0,30.15,ESE,113,0.4,0.4,86,0.00,,,0.00,WUHU216HW,2013-02-01 10:07:00,
2013-02-01 02:12:00,36.7,33.1,30.15,ENE,68,0.4,0.4,87,0.00,,,0.00,WUHU216HW,2013-02-01 10:12:00,
2013-02-01 02:17:00,36.7,33.1,30.15,ENE,68,0.0,0.4,87,0.00,,,0.00,WUHU216HW,2013-02-01 10:17:00,
2013-02-01 02:22:00,36.7,33.1,30.15,ENE,68,0.0,0.2,87,0.00,,,0.00,WUHU216HW,2013-02-01 10:22:00,
2013-02-01 02:28:00,36.5,32.9,30.15,ENE,68,0.4,0.4,87,0.00,,,0.00,WUHU216HW,2013-02-01 10:28:00,
2013-02-01 02:33:00,36.4,32.8,30.15,ENE,68,0.0,0.4,87,0.00,,,0.00,WUHU216HW,2013-02-01 10:33:00,
2013-02-01 02:39:00,36.4,32.8,30.15,ENE,68,0.0,0.0,87,0.00,,,0.00,WUHU216HW,2013-02-01 10:39:00,
2013-02-01 02:44:00,36.2,32.6,30.15,ENE,68,0.0,0.0,87,0.00,,,0.00,WUHU216HW,2013-02-01 10:44:00,
2013-02-01 02:50:00,36.0,32.4,30.15,ENE,68,0.0,0.0,87,0.00,,,0.00,WUHU216HW,2013-02-01 10:50:00,
2013-02-01 02:55:00,36.0,32.4,30.15,ENE,68,0.0,0.0,87,0.00,,,0.00,WUHU216HW,2013-02-01 10:55:00,
2013-02-01 03:00:00,35.8,32.2,30.15,ENE,68,0.0,0.0,87,0.00,,,0.00,WUHU216HW,2013-02-01 11:00:00,
2013-02-01 03:05:00,35.6,31.8,30.15,ENE,68,0.0,0.0,86,0.00,,,0.00,WUHU216HW,2013-02-01 11:05:00,
2013-02-01 03:10:00,35.6,31.8,30.15,NE,45,0.4,0.4,86,0.00,,,0.00,WUHU216HW,2013-02-01 11:10:00,
2013-02-01 03:15:00,35.6,31.8,30.15,NE,45,0.0,0.4,86,0.00,,,0.00,WUHU216HW,2013-02-01 11:15:00,
2013-02-01 03:20:00,35.5,31.6,30.15,NE,45,0.0,0.4,86,0.00,,,0.00,WUHU216HW,2013-02-01 11:20:00,
2013-02-01 03:25:00,35.5,31.6,30.15,NE,45,0.0,0.0,86,0.00,,,0.00,WUHU216HW,2013-02-01 11:25:00,
2013-02-01 03:30:00,35.5,31.6,30.15,NE,45,0.2,0.2,86,0.00,,,0.00,WUHU216HW,2013-02-01 11:30:00,
2013-02-01 03:35:00,35.3,31.4,30.15,NE,45,0.0,0.2,86,0.00,,,0.00,WUHU216HW,2013-02-01 11:35:00,
2013-02-01 03:40:00,35.3,31.4,30.15,NE,45,0.0,0.2,86,0.00,,,0.00,WUHU216HW,2013-02-01 11:40:00,
2013-02-01 03:46:00,35.1,31.2,30.15,NE,45,0.0,0.0,86,0.00,,,0.00,WUHU216HW,2013-02-01 11:46:00,
2013-02-01 03:51:00,35.1,31.2,30.15,NE,45,0.0,0.0,86,0.00,,,0.00,WUHU216HW,2013-02-01 11:51:00,
2013-02-01 03:56:00,34.9,31.1,30.15,NE,45,0.0,0.0,86,0.00,,,0.00,WUHU216HW,2013-02-01 11:56:00,
2013-02-01 04:01:00,34.9,31.1,30.15,NE,45,0.0,0.0,86,0.00,,,0.00,WUHU216HW,2013-02-01 12:01:00,
2013-02-01 04:06:00,34.9,31.3,30.15,NE,45,0.0,0.0,87,0.00,,,0.00,WUHU216HW,2013-02-01 12:06:00,
2013-02-01 04:11:00,34.9,31.3,30.15,NE,45,0.0,0.0,87,0.00,,,0.00,WUHU216HW,2013-02-01 12:11:00,
2013-02-01 04:16:00,34.7,31.1,30.15,NE,45,0.0,0.0,87,0.00,,,0.00,WUHU216HW,2013-02-01 12:16:00,
2013-02-01 04:21:00,34.6,31.0,30.15,NE,45,0.0,0.0,87,0.00,,,0.00,WUHU216HW,2013-02-01 12:21:00,
2013-02-01 04:26:00,34.6,31.0,30.15,NE,45,0.0,0.0,87,0.00,,,0.00,WUHU216HW,2013-02-01 12:26:00,
2013-02-01 04:31:00,34.4,30.8,30.14,NE,45,0.0,0.0,87,0.00,,,0.00,WUHU216HW,2013-02-01 12:31:00,
2013-02-01 04:36:00,34.4,30.8,30.14,NE,45,0.0,0.0,87,0.00,,,0.00,WUHU216HW,2013-02-01 12:36:00,
2013-02-01 04:42:00,34.2,30.6,30.15,NE,45,0.0,0.2,87,0.00,,,0.00,WUHU216HW,2013-02-01 12:42:00,
2013-02-01 04:47:00,34.2,30.6,30.15,NE,45,0.0,0.2,87,0.00,,,0.00,WUHU216HW,2013-02-01 12:47:00,
2013-02-01 04:52:00,34.2,30.6,30.15,NE,45,0.0,0.0,87,0.00,,,0.00,WUHU216HW,2013-02-01 12:52:00,
2013-02-01 04:57:00,34.2,30.6,30.15,NE,45,0.0,0.0,87,0.00,,,0.00,WUHU216HW,2013-02-01 12:57:00,
2013-02-01 05:02:00,34.2,30.6,30.15,NE,45,0.2,0.2,87,0.00,,,0.00,WUHU216HW,2013-02-01 13:02:00,
2013-02-01 05:07:00,34.2,30.6,30.15,NE,45,0.2,0.2,87,0.00,,,0.00,WUHU216HW,2013-02-01 13:07:00,
2013-02-01 05:12:00,34.0,30.4,30.15,NE,45,0.0,0.2,87,0.00,,,0.00,WUHU216HW,2013-02-01 13:12:00,
2013-02-01 05:18:00,34.0,30.4,30.15,NE,45,0.0,0.2,87,0.00,,,0.00,WUHU216HW,2013-02-01 13:18:00,
2013-02-01 05:23:00,34.0,30.8,30.14,NE,45,0.0,0.0,88,0.00,,,0.00,WUHU216HW,2013-02-01 13:23:00,
2013-02-01 05:28:00,33.8,30.6,30.15,NE,45,0.0,0.0,88,0.00,,,0.00,WUHU216HW,2013-02-01 13:28:00,
2013-02-01 05:33:00,33.8,30.6,30.15,NE,45,0.0,0.0,88,0.00,,,0.00,WUHU216HW,2013-02-01 13:33:00,
2013-02-01 05:38:00,33.8,30.6,30.15,NE,45,0.0,0.2,88,0.00,,,0.00,WUHU216HW,2013-02-01 13:38:00,
2013-02-01 05:43:00,33.8,30.6,30.15,NE,45,0.4,0.4,88,0.00,,,0.00,WUHU216HW,2013-02-01 13:43:00,
2013-02-01 05:48:00,33.8,30.6,30.15,NE,45,0.0,0.4,88,0.00,,,0.00,WUHU216HW,2013-02-01 13:48:00,
2013-02-01 05:53:00,33.8,30.6,30.15,NNE,23,0.0,0.4,88,0.00,,,0.00,WUHU216HW,2013-02-01 13:53:00,
2013-02-01 05:58:00,33.8,30.6,30.15,NNE,23,0.0,0.0,88,0.00,,,0.00,WUHU216HW,2013-02-01 13:58:00,
2013-02-01 06:03:00,33.7,30.4,30.15,NNE,23,0.0,0.0,88,0.00,,,0.00,WUHU216HW,2013-02-01 14:03:00,
2013-02-01 06:08:00,33.7,30.4,30.15,NNE,23,0.0,0.2,88,0.00,,,0.00,WUHU216HW,2013-02-01 14:08:00,
2013-02-01 06:14:00,33.7,30.4,30.15,NNE,23,0.0,0.2,88,0.00,,,0.00,WUHU216HW,2013-02-01 14:14:00,
2013-02-01 06:19:00,33.7,30.4,30.15,NNE,23,0.0,0.0,88,0.00,,,0.00,WUHU216HW,2013-02-01 14:19:00,
2013-02-01 06:24:00,33.7,30.7,30.15,NNE,23,0.0,0.0,89,0.00,,,0.00,WUHU216HW,2013-02-01 14:24:00,
2013-02-01 06:29:00,33.7,30.4,30.15,NNE,23,0.0,0.0,88,0.00,,,0.00,WUHU216HW,2013-02-01 14:29:00,
2013-02-01 06:34:00,33.5,30.2,30.15,NNE,23,0.0,0.0,88,0.00,,,0.00,WUHU216HW,2013-02-01 14:34:00,
2013-02-01 06:40:00,33.5,30.5,30.15,NNE,23,0.0,0.2,89,0.00,,,0.00,WUHU216HW,2013-02-01 14:40:00,
2013-02-01 06:45:00,33.5,30.5,30.15,NE,45,0.2,0.4,89,0.00,,,0.00,WUHU216HW,2013-02-01 14:45:00,
2013-02-01 06:50:00,33.5,30.5,30.15,NE,45,0.0,0.4,89,0.00,,,0.00,WUHU216HW,2013-02-01 14:50:00,
2013-02-01 06:55:00,33.5,30.5,30.15,NE,45,0.0,0.2,89,0.00,,,0.00,WUHU216HW,2013-02-01 14:55:00,
2013-02-01 07:00:00,33.5,30.5,30.15,NE,45,0.0,0.0,89,0.00,,,0.00,WUHU216HW,2013-02-01 15:00:00,
2013-02-01 07:05:00,33.5,30.5,30.16,NE,45,0.0,0.0,89,0.00,,,0.00,WUHU216HW,2013-02-01 15:05:00,
2013-02-01 07:10:00,33.5,30.5,30.16,NE,45,0.0,0.0,89,0.00,,,0.00,WUHU216HW,2013-02-01 15:10:00,
2013-02-01 07:15:00,33.5,30.5,30.16,NE,45,0.0,0.2,89,0.00,,,0.00,WUHU216HW,2013-02-01 15:15:00,
2013-02-01 07:20:00,33.5,30.5,30.16,NE,45,0.0,0.2,89,0.00,,,0.00,WUHU216HW,2013-02-01 15:20:00,
2013-02-01 07:25:00,33.5,30.5,30.16,NE,45,0.0,0.0,89,0.00,,,0.00,WUHU216HW,2013-02-01 15:25:00,
2013-02-01 07:30:00,33.5,30.5,30.16,NE,45,0.0,0.0,89,0.00,,,0.00,WUHU216HW,2013-02-01 15:30:00,
2013-02-01 07:35:00,33.5,30.5,30.16,NE,45,0.0,0.0,89,0.00,,,0.00,WUHU216HW,2013-02-01 15:35:00,
2013-02-01 07:41:00,33.5,30.5,30.16,NE,45,0.0,0.0,89,0.00,,,0.00,WUHU216HW,2013-02-01 15:41:00,
2013-02-01 07:46:00,33.5,30.5,30.16,NE,45,0.0,0.2,89,0.00,,,0.00,WUHU216HW,2013-02-01 15:46:00,
2013-02-01 07:51:00,33.7,30.7,30.17,NE,45,0.0,0.2,89,0.00,,,0.00,WUHU216HW,2013-02-01 15:51:00,
2013-02-01 07:56:00,33.8,30.9,30.17,NE,45,0.0,0.0,89,0.00,,,0.00,WUHU216HW,2013-02-01 15:56:00,
2013-02-01 08:01:00,34.0,31.3,30.17,NE,45,0.0,0.0,90,0.00,,,0.00,WUHU216HW,2013-02-01 16:01:00,
2013-02-01 08:06:00,34.2,31.5,30.17,NE,45,0.0,0.0,90,0.00,,,0.00,WUHU216HW,2013-02-01 16:06:00,
2013-02-01 08:11:00,34.6,31.9,30.16,NE,45,0.0,0.2,90,0.00,,,0.00,WUHU216HW,2013-02-01 16:11:00,
2013-02-01 08:16:00,34.9,32.2,30.16,NE,45,0.0,0.2,90,0.00,,,0.00,WUHU216HW,2013-02-01 16:16:00,
2013-02-01 08:21:00,35.3,32.6,30.16,NE,45,0.0,0.2,90,0.00,,,0.00,WUHU216HW,2013-02-01 16:21:00,
2013-02-01 08:26:00,36.2,33.8,30.16,NE,45,0.0,0.2,91,0.00,,,0.00,WUHU216HW,2013-02-01 16:26:00,
2013-02-01 08:31:00,37.6,35.2,30.16,NNW,338,0.2,0.2,91,0.00,,,0.00,WUHU216HW,2013-02-01 16:31:00,
2013-02-01 08:36:00,38.9,36.5,30.16,West,270,0.4,0.7,91,0.00,,,0.00,WUHU216HW,2013-02-01 16:36:00,
2013-02-01 08:41:00,39.6,37.4,30.16,West,270,0.0,0.7,92,0.00,,,0.00,WUHU216HW,2013-02-01 16:41:00,
2013-02-01 08:47:00,40.3,38.2,30.16,SSW,203,0.4,0.4,92,0.00,,,0.00,WUHU216HW,2013-02-01 16:47:00,
2013-02-01 08:52:00,41.2,39.1,30.16,SSW,203,0.0,0.4,92,0.00,,,0.00,WUHU216HW,2013-02-01 16:52:00,
2013-02-01 08:57:00,42.1,40.0,30.16,SSW,203,0.0,0.0,92,0.00,,,0.00,WUHU216HW,2013-02-01 16:57:00,
2013-02-01 09:02:00,43.4,41.0,30.16,SSW,203,0.0,0.0,91,0.00,,,0.00,WUHU216HW,2013-02-01 17:02:00,
2013-02-01 09:07:00,44.6,42.2,30.16,SSW,203,0.0,0.0,91,0.00,,,0.00,WUHU216HW,2013-02-01 17:07:00,
2013-02-01 09:12:00,46.6,44.2,30.16,SSW,203,0.0,0.0,91,0.00,,,0.00,WUHU216HW,2013-02-01 17:12:00,
2013-02-01 09:17:00,48.2,44.9,30.16,ENE,68,0.2,0.2,88,0.00,,,0.00,WUHU216HW,2013-02-01 17:17:00,
2013-02-01 09:22:00,48.2,43.9,30.16,ESE,113,0.0,0.2,85,0.00,,,0.00,WUHU216HW,2013-02-01 17:22:00,
2013-02-01 09:27:00,47.7,43.8,30.16,SSW,203,0.4,0.7,86,0.00,,,0.00,WUHU216HW,2013-02-01 17:27:00,
2013-02-01 09:32:00,47.3,43.4,30.16,SSE,158,0.4,1.1,86,0.00,,,0.00,WUHU216HW,2013-02-01 17:32:00,
2013-02-01 09:37:00,47.3,43.0,30.16,East,90,0.7,1.1,85,0.00,,,0.00,WUHU216HW,2013-02-01 17:37:00,
2013-02-01 09:42:00,47.3,43.0,30.17,South,180,1.6,1.6,85,0.00,,,0.00,WUHU216HW,2013-02-01 17:42:00,
2013-02-01 09:48:00,47.7,43.1,30.17,South,180,0.7,1.6,84,0.00,,,0.00,WUHU216HW,2013-02-01 17:48:00,
2013-02-01 09:53:00,48.2,43.3,30.16,East,90,0.4,1.6,83,0.00,,,0.00,WUHU216HW,2013-02-01 17:53:00,
2013-02-01 09:58:00,48.6,43.7,30.16,NNE,23,0.0,1.6,83,0.00,,,0.00,WUHU216HW,2013-02-01 17:58:00,
2013-02-01 10:03:00,49.1,44.1,30.16,NNE,23,0.2,0.4,83,0.00,,,0.00,WUHU216HW,2013-02-01 18:03:00,
2013-02-01 10:08:00,49.7,44.4,30.16,SSW,203,0.2,0.7,82,0.00,,,0.00,WUHU216HW,2013-02-01 18:08:00,
2013-02-01 10:13:00,50.2,44.9,30.16,SSW,203,0.2,1.1,82,0.00,,,0.00,WUHU216HW,2013-02-01 18:13:00,
2013-02-01 10:18:00,50.9,45.0,30.16,SSW,203,0.9,1.8,80,0.00,,,0.00,WUHU216HW,2013-02-01 18:18:00,
2013-02-01 10:23:00,51.8,45.5,30.16,ENE,68,0.0,1.8,79,0.00,,,0.00,WUHU216HW,2013-02-01 18:23:00,
2013-02-01 10:28:00,53.1,46.4,30.16,SW,225,1.3,1.8,78,0.00,,,0.00,WUHU216HW,2013-02-01 18:28:00,
2013-02-01 10:33:00,54.0,46.3,30.16,WSW,248,0.7,1.8,75,0.00,,,0.00,WUHU216HW,2013-02-01 18:33:00,
2013-02-01 10:38:00,54.7,46.9,30.16,NW,315,0.9,1.8,75,0.00,,,0.00,WUHU216HW,2013-02-01 18:38:00,
2013-02-01 10:43:00,55.1,46.9,30.16,West,270,1.8,2.7,74,0.00,,,0.00,WUHU216HW,2013-02-01 18:43:00,
2013-02-01 10:48:00,55.4,46.9,30.16,WSW,248,2.7,2.7,73,0.00,,,0.00,WUHU216HW,2013-02-01 18:48:00,
2013-02-01 10:53:00,55.8,47.3,30.16,WSW,248,1.1,3.4,73,0.00,,,0.00,WUHU216HW,2013-02-01 18:53:00,
2013-02-01 10:58:00,56.3,47.8,30.16,WNW,293,2.5,3.4,73,0.00,,,0.00,WUHU216HW,2013-02-01 18:58:00,
2013-02-01 11:03:00,56.5,47.3,30.16,West,270,2.0,4.5,71,0.00,,,0.00,WUHU216HW,2013-02-01 19:03:00,
2013-02-01 11:08:00,56.9,47.2,30.15,WSW,248,2.5,4.5,70,0.00,,,0.00,WUHU216HW,2013-02-01 19:08:00,
2013-02-01 11:14:00,57.4,47.4,30.15,SW,225,2.9,4.0,69,0.00,,,0.00,WUHU216HW,2013-02-01 19:14:00,
2013-02-01 11:19:00,58.0,47.4,30.15,West,270,4.0,4.9,68,0.00,,,0.00,WUHU216HW,2013-02-01 19:19:00,
2013-02-01 11:24:00,58.3,48.2,30.15,NW,315,1.1,4.0,69,0.00,,,0.00,WUHU216HW,2013-02-01 19:24:00,
2013-02-01 11:29:00,58.9,48.3,30.14,WNW,293,0.9,3.6,68,0.00,,,0.00,WUHU216HW,2013-02-01 19:29:00,
2013-02-01 11:34:00,59.2,47.4,30.14,West,270,3.1,4.0,65,0.00,,,0.00,WUHU216HW,2013-02-01 19:34:00,
2013-02-01 11:39:00,59.6,47.3,30.14,WNW,293,3.1,4.0,64,0.00,,,0.00,WUHU216HW,2013-02-01 19:39:00,
2013-02-01 11:44:00,59.9,47.4,30.13,West,270,4.5,5.8,63,0.00,,,0.00,WUHU216HW,2013-02-01 19:44:00,
2013-02-01 11:49:00,60.1,48.3,30.13,West,270,4.0,5.8,65,0.00,,,0.00,WUHU216HW,2013-02-01 19:49:00,
2013-02-01 11:54:00,60.7,48.4,30.13,WNW,293,4.7,4.9,64,0.00,,,0.00,WUHU216HW,2013-02-01 19:54:00,
2013-02-01 11:59:00,61.0,48.4,30.13,West,270,2.2,4.9,63,0.00,,,0.00,WUHU216HW,2013-02-01 19:59:00,
2013-02-01 12:04:00,61.6,49.3,30.13,NNE,23,2.2,4.5,64,0.00,,,0.00,WUHU216HW,2013-02-01 20:04:00,
2013-02-01 12:09:00,61.9,48.8,30.12,NE,45,2.0,3.6,62,0.00,,,0.00,WUHU216HW,2013-02-01 20:09:00,
2013-02-01 12:14:00,62.5,49.2,30.12,NE,45,1.6,4.3,62,0.00,,,0.00,WUHU216HW,2013-02-01 20:14:00,
2013-02-01 12:20:00,62.8,48.8,30.12,West,270,2.5,4.5,60,0.00,,,0.00,WUHU216HW,2013-02-01 20:20:00,
2013-02-01 12:25:00,63.0,48.4,30.11,WSW,248,2.5,4.9,59,0.00,,,0.00,WUHU216HW,2013-02-01 20:25:00,
2013-02-01 12:30:00,63.4,48.8,30.11,West,270,2.0,4.9,59,0.00,,,0.00,WUHU216HW,2013-02-01 20:30:00,
2013-02-01 12:35:00,63.5,48.4,30.11,WNW,293,5.4,8.5,58,0.00,,,0.00,WUHU216HW,2013-02-01 20:35:00,
2013-02-01 12:40:00,63.9,48.2,30.11,North,0,2.0,8.5,57,0.00,,,0.00,WUHU216HW,2013-02-01 20:40:00,
2013-02-01 12:45:00,64.3,48.6,30.11,NNW,338,0.4,5.8,57,0.00,,,0.00,WUHU216HW,2013-02-01 20:45:00,
2013-02-01 12:50:00,64.4,48.2,30.10,North,0,2.0,5.1,56,0.00,,,0.00,WUHU216HW,2013-02-01 20:50:00,
2013-02-01 12:55:00,64.8,48.2,30.10,WNW,293,4.5,4.5,55,0.00,,,0.00,WUHU216HW,2013-02-01 20:55:00,
2013-02-01 13:00:00,65.2,48.5,30.10,SW,225,2.2,4.5,55,0.00,,,0.00,WUHU216HW,2013-02-01 21:00:00,
2013-02-01 13:05:00,65.3,48.3,30.10,WNW,293,2.5,6.0,54,0.00,,,0.00,WUHU216HW,2013-02-01 21:05:00,
2013-02-01 13:10:00,65.3,47.7,30.10,West,270,2.9,6.0,53,0.00,,,0.00,WUHU216HW,2013-02-01 21:10:00,
2013-02-01 13:15:00,65.7,49.1,30.09,WNW,293,1.1,4.7,55,0.00,,,0.00,WUHU216HW,2013-02-01 21:15:00,
2013-02-01 13:20:00,66.1,49.0,30.09,North,0,1.3,4.7,54,0.00,,,0.00,WUHU216HW,2013-02-01 21:20:00,
2013-02-01 13:26:00,66.2,49.6,30.09,West,270,4.0,4.0,55,0.00,,,0.00,WUHU216HW,2013-02-01 21:26:00,
2013-02-01 13:31:00,66.6,48.4,30.09,NW,315,3.6,5.4,52,0.00,,,0.00,WUHU216HW,2013-02-01 21:31:00,
2013-02-01 13:36:00,66.8,48.6,30.08,NW,315,3.4,5.4,52,0.00,,,0.00,WUHU216HW,2013-02-01 21:36:00,
2013-02-01 13:41:00,67.0,48.8,30.08,North,0,0.7,4.7,52,0.00,,,0.00,WUHU216HW,2013-02-01 21:41:00,
2013-02-01 13:46:00,67.3,49.2,30.08,WNW,293,5.1,5.1,52,0.00,,,0.00,WUHU216HW,2013-02-01 21:46:00,
2013-02-01 13:51:00,67.3,49.2,30.08,WNW,293,3.4,5.1,52,0.00,,,0.00,WUHU216HW,2013-02-01 21:51:00,
2013-02-01 13:56:00,67.3,49.2,30.07,WNW,293,2.0,4.0,52,0.00,,,0.00,WUHU216HW,2013-02-01 21:56:00,
2013-02-01 14:01:00,67.3,48.2,30.08,WNW,293,4.0,6.3,50,0.00,,,0.00,WUHU216HW,2013-02-01 22:01:00,
2013-02-01 14:06:00,67.5,48.8,30.07,West,270,3.6,6.3,51,0.00,,,0.00,WUHU216HW,2013-02-01 22:06:00,
2013-02-01 14:11:00,67.5,48.3,30.07,WNW,293,3.8,4.5,50,0.00,,,0.00,WUHU216HW,2013-02-01 22:11:00,
2013-02-01 14:16:00,67.7,48.4,30.07,WNW,293,4.7,4.7,50,0.00,,,0.00,WUHU216HW,2013-02-01 22:16:00,
2013-02-01 14:21:00,67.9,48.6,30.07,West,270,6.3,6.3,50,0.00,,,0.00,WUHU216HW,2013-02-01 22:21:00,
2013-02-01 14:27:00,67.5,47.7,30.07,NW,315,4.5,6.3,49,0.00,,,0.00,WUHU216HW,2013-02-01 22:27:00,
2013-02-01 14:32:00,67.5,48.3,30.08,West,270,2.9,6.3,50,0.00,,,0.00,WUHU216HW,2013-02-01 22:32:00,
2013-02-01 14:37:00,67.7,48.4,30.08,West,270,3.4,6.7,50,0.00,,,0.00,WUHU216HW,2013-02-01 22:37:00,
2013-02-01 14:42:00,67.9,48.1,30.08,West,270,3.4,6.7,49,0.00,,,0.00,WUHU216HW,2013-02-01 22:42:00,
2013-02-01 14:47:00,68.2,49.4,30.07,WNW,293,0.9,5.4,51,0.00,,,0.00,WUHU216HW,2013-02-01 22:47:00,
2013-02-01 14:52:00,68.2,49.0,30.07,NW,315,0.7,3.1,50,0.00,,,0.00,WUHU216HW,2013-02-01 22:52:00,
2013-02-01 14:57:00,68.2,48.3,30.07,ESE,113,0.4,6.3,49,0.00,,,0.00,WUHU216HW,2013-02-01 22:57:00,
2013-02-01 15:02:00,68.2,49.0,30.08,West,270,2.0,6.3,50,0.00,,,0.00,WUHU216HW,2013-02-01 23:02:00,
2013-02-01 15:07:00,68.2,49.4,30.08,West,270,2.5,3.6,51,0.00,,,0.00,WUHU216HW,2013-02-01 23:07:00,
2013-02-01 15:12:00,68.2,49.0,30.07,NW,315,2.9,3.6,50,0.00,,,0.00,WUHU216HW,2013-02-01 23:12:00,
2013-02-01 15:17:00,68.0,48.8,30.08,NW,315,0.4,3.1,50,0.00,,,0.00,WUHU216HW,2013-02-01 23:17:00,
2013-02-01 15:22:00,67.7,48.4,30.08,NNW,338,0.7,3.1,50,0.00,,,0.00,WUHU216HW,2013-02-01 23:22:00,
2013-02-01 15:27:00,67.3,48.6,30.08,West,270,1.6,1.6,51,0.00,,,0.00,WUHU216HW,2013-02-01 23:27:00,
2013-02-01 15:32:00,67.3,48.6,30.08,North,0,0.7,1.6,51,0.00,,,0.00,WUHU216HW,2013-02-01 23:32:00,
2013-02-01 15:37:00,67.1,49.0,30.08,NW,315,0.9,3.4,52,0.00,,,0.00,WUHU216HW,2013-02-01 23:37:00,
2013-02-01 15:43:00,67.0,48.8,30.07,West,270,2.2,4.0,52,0.00,,,0.00,WUHU216HW,2013-02-01 23:43:00,
2013-02-01 15:48:00,66.6,48.4,30.08,NW,315,1.1,4.7,52,0.00,,,0.00,WUHU216HW,2013-02-01 23:48:00,
2013-02-01 15:53:00,66.4,48.3,30.07,WNW,293,4.5,4.7,52,0.00,,,0.00,WUHU216HW,2013-02-01 23:53:00,
2013-02-01 15:58:00,65.9,47.8,30.07,WNW,293,4.3,4.5,52,0.00,,,0.00,WUHU216HW,2013-02-01 23:58:00,
2013-02-01 16:03:00,65.5,47.9,30.07,WNW,293,3.1,5.4,53,0.00,,,0.00,WUHU216HW,2013-02-02 00:03:00,
2013-02-01 16:08:00,65.0,47.9,30.07,NW,315,2.2,5.4,54,0.00,,,0.00,WUHU216HW,2013-02-02 00:08:00,
2013-02-01 16:13:00,65.0,47.9,30.07,West,270,2.7,4.7,54,0.00,,,0.00,WUHU216HW,2013-02-02 00:13:00,
2013-02-01 16:18:00,64.8,47.7,30.07,WNW,293,4.7,5.6,54,0.00,,,0.00,WUHU216HW,2013-02-02 00:18:00,
2013-02-01 16:23:00,64.4,47.8,30.08,NW,315,0.0,5.6,55,0.00,,,0.00,WUHU216HW,2013-02-02 00:23:00,
2013-02-01 16:28:00,64.3,47.6,30.07,WNW,293,1.8,2.2,55,0.00,,,0.00,WUHU216HW,2013-02-02 00:28:00,
2013-02-01 16:33:00,64.1,47.4,30.07,NW,315,0.4,2.5,55,0.00,,,0.00,WUHU216HW,2013-02-02 00:33:00,
2013-02-01 16:38:00,63.7,47.6,30.07,WNW,293,0.4,2.5,56,0.00,,,0.00,WUHU216HW,2013-02-02 00:38:00,
2013-02-01 16:43:00,63.4,47.4,30.08,NW,315,0.0,2.2,56,0.00,,,0.00,WUHU216HW,2013-02-02 00:43:00,
2013-02-01 16:49:00,63.0,47.4,30.08,NW,315,0.0,2.2,57,0.00,,,0.00,WUHU216HW,2013-02-02 00:49:00,
2013-02-01 16:54:00,62.6,47.2,30.08,SSW,203,1.8,1.8,57,0.00,,,0.00,WUHU216HW,2013-02-02 00:54:00,
2013-02-01 16:59:00,62.3,47.4,30.08,SW,225,0.7,1.8,58,0.00,,,0.00,WUHU216HW,2013-02-02 00:59:00,
2013-02-01 17:04:00,62.1,47.2,30.08,WNW,293,1.1,2.7,58,0.00,,,0.00,WUHU216HW,2013-02-02 01:04:00,
2013-02-01 17:09:00,61.7,46.8,30.08,WNW,293,0.7,3.8,58,0.00,,,0.00,WUHU216HW,2013-02-02 01:09:00,
2013-02-01 17:14:00,61.4,47.0,30.09,SW,225,1.3,3.8,59,0.00,,,0.00,WUHU216HW,2013-02-02 01:14:00,
2013-02-01 17:19:00,61.0,46.6,30.09,SSW,203,0.2,1.6,59,0.00,,,0.00,WUHU216HW,2013-02-02 01:19:00,
2013-02-01 17:24:00,60.8,47.0,30.09,WSW,248,0.4,1.3,60,0.00,,,0.00,WUHU216HW,2013-02-02 01:24:00,
2013-02-01 17:29:00,60.3,46.4,30.09,West,270,0.2,1.1,60,0.00,,,0.00,WUHU216HW,2013-02-02 01:29:00,
2013-02-01 17:34:00,59.9,46.5,30.10,WNW,293,0.0,1.1,61,0.00,,,0.00,WUHU216HW,2013-02-02 01:34:00,
2013-02-01 17:39:00,59.4,46.4,30.10,West,270,1.1,2.5,62,0.00,,,0.00,WUHU216HW,2013-02-02 01:39:00,
2013-02-01 17:44:00,59.2,46.2,30.10,SW,225,2.0,2.5,62,0.00,,,0.00,WUHU216HW,2013-02-02 01:44:00,
2013-02-01 17:49:00,59.0,46.0,30.11,SSE,158,1.1,2.5,62,0.00,,,0.00,WUHU216HW,2013-02-02 01:49:00,
2013-02-01 17:54:00,58.9,45.8,30.11,South,180,1.1,1.6,62,0.00,,,0.00,WUHU216HW,2013-02-02 01:54:00,
2013-02-01 17:59:00,58.7,45.7,30.11,SSW,203,0.0,1.3,62,0.00,,,0.00,WUHU216HW,2013-02-02 01:59:00,
2013-02-01 18:05:00,58.1,45.2,30.12,SSW,203,0.0,0.4,62,0.00,,,0.00,WUHU216HW,2013-02-02 02:05:00,
2013-02-01 18:10:00,57.8,45.3,30.12,East,90,0.4,0.4,63,0.00,,,0.00,WUHU216HW,2013-02-02 02:10:00,
2013-02-01 18:15:00,57.2,45.2,30.13,East,90,0.4,0.4,64,0.00,,,0.00,WUHU216HW,2013-02-02 02:15:00,
2013-02-01 18:20:00,56.7,45.0,30.13,ESE,113,0.9,1.1,65,0.00,,,0.00,WUHU216HW,2013-02-02 02:20:00,
2013-02-01 18:25:00,56.2,44.6,30.13,NE,45,1.3,1.3,65,0.00,,,0.00,WUHU216HW,2013-02-02 02:25:00,
2013-02-01 18:30:00,55.6,44.4,30.13,ENE,68,0.0,1.3,66,0.00,,,0.00,WUHU216HW,2013-02-02 02:30:00,
2013-02-01 18:35:00,55.3,44.5,30.13,ENE,68,0.0,1.1,67,0.00,,,0.00,WUHU216HW,2013-02-02 02:35:00,
2013-02-01 18:40:00,54.9,44.6,30.13,ENE,68,0.0,0.2,68,0.00,,,0.00,WUHU216HW,2013-02-02 02:40:00,
2013-02-01 18:45:00,54.5,44.6,30.13,SE,135,0.0,0.4,69,0.00,,,0.00,WUHU216HW,2013-02-02 02:45:00,
2013-02-01 18:50:00,54.2,44.3,30.13,ENE,68,1.1,1.1,69,0.00,,,0.00,WUHU216HW,2013-02-02 02:50:00,
2013-02-01 18:55:00,53.6,43.8,30.14,East,90,0.4,1.1,69,0.00,,,0.00,WUHU216HW,2013-02-02 02:55:00,
2013-02-01 19:01:00,53.3,43.7,30.14,East,90,0.2,1.1,70,0.00,,,0.00,WUHU216HW,2013-02-02 03:01:00,
2013-02-01 19:06:00,52.9,43.5,30.14,ENE,68,0.0,0.7,70,0.00,,,0.00,WUHU216HW,2013-02-02 03:06:00,
2013-02-01 19:11:00,52.7,43.7,30.14,ENE,68,0.2,0.7,71,0.00,,,0.00,WUHU216HW,2013-02-02 03:11:00,
2013-02-01 19:16:00,52.4,43.3,30.14,ENE,68,0.4,0.7,71,0.00,,,0.00,WUHU216HW,2013-02-02 03:16:00,
2013-02-01 19:21:00,52.0,43.0,30.14,ENE,68,0.0,0.7,71,0.00,,,0.00,WUHU216HW,2013-02-02 03:21:00,
2013-02-01 19:26:00,51.8,42.9,30.14,ENE,68,0.0,0.4,71,0.00,,,0.00,WUHU216HW,2013-02-02 03:26:00,
2013-02-01 19:31:00,51.5,42.9,30.14,ENE,68,0.0,0.4,72,0.00,,,0.00,WUHU216HW,2013-02-02 03:31:00,
2013-02-01 19:36:00,51.1,42.5,30.14,ENE,68,0.0,0.2,72,0.00,,,0.00,WUHU216HW,2013-02-02 03:36:00,
2013-02-01 19:41:00,50.8,42.1,30.14,ENE,68,0.2,0.2,72,0.00,,,0.00,WUHU216HW,2013-02-02 03:41:00,
2013-02-01 19:46:00,50.6,42.0,30.15,ENE,68,0.0,0.2,72,0.00,,,0.00,WUHU216HW,2013-02-02 03:46:00,
2013-02-01 19:51:00,50.2,41.9,30.14,ENE,68,0.0,0.0,73,0.00,,,0.00,WUHU216HW,2013-02-02 03:51:00,
2013-02-01 19:56:00,50.0,41.7,30.14,ENE,68,0.0,0.2,73,0.00,,,0.00,WUHU216HW,2013-02-02 03:56:00,
2013-02-01 20:01:00,49.7,41.7,30.14,ENE,68,0.4,0.4,74,0.00,,,0.00,WUHU216HW,2013-02-02 04:01:00,
2013-02-01 20:07:00,49.5,41.5,30.15,ENE,68,0.0,0.7,74,0.00,,,0.00,WUHU216HW,2013-02-02 04:07:00,
2013-02-01 20:12:00,49.3,41.7,30.15,SW,225,0.0,0.7,75,0.00,,,0.00,WUHU216HW,2013-02-02 04:12:00,
2013-02-01 20:17:00,49.1,41.5,30.15,SSW,203,0.0,0.2,75,0.00,,,0.00,WUHU216HW,2013-02-02 04:17:00,
2013-02-01 20:22:00,49.0,41.3,30.15,East,90,0.2,0.4,75,0.00,,,0.00,WUHU216HW,2013-02-02 04:22:00,
2013-02-01 20:27:00,48.6,41.3,30.15,ENE,68,0.0,0.4,76,0.00,,,0.00,WUHU216HW,2013-02-02 04:27:00,
2013-02-01 20:32:00,48.6,41.3,30.15,ENE,68,0.4,0.4,76,0.00,,,0.00,WUHU216HW,2013-02-02 04:32:00,
2013-02-01 20:37:00,48.4,41.5,30.15,ENE,68,0.2,0.4,77,0.00,,,0.00,WUHU216HW,2013-02-02 04:37:00,
2013-02-01 20:42:00,48.2,41.3,30.15,ENE,68,0.0,0.4,77,0.00,,,0.00,WUHU216HW,2013-02-02 04:42:00,
2013-02-01 20:47:00,47.9,41.0,30.15,ENE,68,0.0,0.4,77,0.00,,,0.00,WUHU216HW,2013-02-02 04:47:00,
2013-02-01 20:52:00,47.9,41.3,30.15,ENE,68,0.0,0.4,78,0.00,,,0.00,WUHU216HW,2013-02-02 04:52:00,
2013-02-01 20:57:00,47.7,41.1,30.15,ENE,68,0.0,0.4,78,0.00,,,0.00,WUHU216HW,2013-02-02 04:57:00,
2013-02-01 21:00:00,47.5,41.0,30.15,ENE,68,0.0,0.4,78,0.00,,,0.00,WUHU216HW,2013-02-02 05:00:00,
2013-02-01 21:01:00,47.5,41.0,30.15,ENE,68,0.0,0.4,78,0.00,,,0.00,WUHU216HW,2013-02-02 05:01:00,
2013-02-01 21:06:00,47.3,40.8,30.16,ENE,68,0.0,0.0,78,0.00,,,0.00,WUHU216HW,2013-02-02 05:06:00,
2013-02-01 21:11:00,47.2,40.7,30.16,ENE,68,0.0,0.0,78,0.00,,,0.00,WUHU216HW,2013-02-02 05:11:00,
2013-02-01 21:18:00,46.8,40.3,30.16,ENE,68,0.4,0.4,78,0.00,,,0.00,WUHU216HW,2013-02-02 05:18:00,
2013-02-01 21:23:00,46.6,40.1,30.16,ENE,68,0.0,0.4,78,0.00,,,0.00,WUHU216HW,2013-02-02 05:23:00,
2013-02-01 21:28:00,46.4,40.0,30.15,ENE,68,0.0,0.2,78,0.00,,,0.00,WUHU216HW,2013-02-02 05:28:00,
2013-02-01 21:33:00,46.3,39.8,30.16,ENE,68,0.4,0.4,78,0.00,,,0.00,WUHU216HW,2013-02-02 05:33:00,
2013-02-01 21:38:00,46.1,40.0,30.16,ENE,68,0.0,0.4,79,0.00,,,0.00,WUHU216HW,2013-02-02 05:38:00,
2013-02-01 21:43:00,45.9,39.8,30.16,ENE,68,0.0,0.4,79,0.00,,,0.00,WUHU216HW,2013-02-02 05:43:00,
2013-02-01 21:49:00,45.7,39.6,30.16,ENE,68,0.0,0.0,79,0.00,,,0.00,WUHU216HW,2013-02-02 05:49:00,
2013-02-01 21:54:00,45.5,39.4,30.16,ENE,68,0.0,0.0,79,0.00,,,0.00,WUHU216HW,2013-02-02 05:54:00,
2013-02-01 21:59:00,45.2,39.4,30.16,ENE,68,0.4,0.4,80,0.00,,,0.00,WUHU216HW,2013-02-02 05:59:00,
2013-02-01 22:04:00,45.0,39.2,30.16,ENE,68,0.4,0.4,80,0.00,,,0.00,WUHU216HW,2013-02-02 06:04:00,
2013-02-01 22:10:00,45.0,39.2,30.16,ENE,68,0.0,0.4,80,0.00,,,0.00,WUHU216HW,2013-02-02 06:10:00,
2013-02-01 22:15:00,44.6,39.2,30.17,ENE,68,0.0,0.2,81,0.00,,,0.00,WUHU216HW,2013-02-02 06:15:00,
2013-02-01 22:20:00,44.5,39.0,30.17,ENE,68,0.0,0.4,81,0.00,,,0.00,WUHU216HW,2013-02-02 06:20:00,
2013-02-01 22:25:00,44.3,38.8,30.17,ENE,68,0.2,0.4,81,0.00,,,0.00,WUHU216HW,2013-02-02 06:25:00,
2013-02-01 22:30:00,44.3,38.8,30.17,ENE,68,0.4,0.4,81,0.00,,,0.00,WUHU216HW,2013-02-02 06:30:00,
2013-02-01 22:35:00,44.1,39.0,30.17,ENE,68,0.0,0.4,82,0.00,,,0.00,WUHU216HW,2013-02-02 06:35:00,
2013-02-01 22:40:00,43.9,38.8,30.17,ENE,68,0.0,0.4,82,0.00,,,0.00,WUHU216HW,2013-02-02 06:40:00,
2013-02-01 22:45:00,43.7,38.6,30.17,WNW,293,0.0,0.0,82,0.00,,,0.00,WUHU216HW,2013-02-02 06:45:00,
2013-02-01 22:51:00,43.6,38.7,30.17,NNE,23,0.4,0.4,83,0.00,,,0.00,WUHU216HW,2013-02-02 06:51:00,
2013-02-01 22:56:00,43.6,38.4,30.17,NNE,23,0.0,0.4,82,0.00,,,0.00,WUHU216HW,2013-02-02 06:56:00,
2013-02-01 23:01:00,43.4,38.5,30.17,NNE,23,0.0,0.2,83,0.00,,,0.00,WUHU216HW,2013-02-02 07:01:00,
2013-02-01 23:06:00,43.2,38.3,30.17,NNE,23,0.0,0.2,83,0.00,,,0.00,WUHU216HW,2013-02-02 07:06:00,
2013-02-01 23:11:00,43.2,38.3,30.17,NNE,23,0.0,0.0,83,0.00,,,0.00,WUHU216HW,2013-02-02 07:11:00,
2013-02-01 23:16:00,43.0,38.2,30.17,NNE,23,0.0,0.2,83,0.00,,,0.00,WUHU216HW,2013-02-02 07:16:00,
2013-02-01 23:21:00,43.0,38.2,30.17,NNE,23,0.0,0.2,83,0.00,,,0.00,WUHU216HW,2013-02-02 07:21:00,
2013-02-01 23:26:00,42.8,38.0,30.17,NNE,23,0.4,0.4,83,0.00,,,0.00,WUHU216HW,2013-02-02 07:26:00,
2013-02-01 23:31:00,42.7,37.8,30.17,NNE,23,0.0,0.4,83,0.00,,,0.00,WUHU216HW,2013-02-02 07:31:00,
2013-02-01 23:36:00,42.7,37.8,30.17,NNE,23,0.2,0.2,83,0.00,,,0.00,WUHU216HW,2013-02-02 07:36:00,
2013-02-01 23:41:00,42.5,38.0,30.16,NNE,23,0.2,0.4,84,0.00,,,0.00,WUHU216HW,2013-02-02 07:41:00,
2013-02-01 23:46:00,42.5,38.0,30.17,WNW,293,0.0,0.4,84,0.00,,,0.00,WUHU216HW,2013-02-02 07:46:00,
2013-02-01 23:51:00,42.3,37.8,30.17,NW,315,0.2,0.2,84,0.00,,,0.00,WUHU216HW,2013-02-02 07:51:00,
2013-02-01 23:56:00,42.3,37.8,30.17,NNE,23,0.2,0.4,84,0.00,,,0.00,WUHU216HW,2013-02-02 07:56:00,